| time (UTC) | temp F | wind direction | speed knots | gust knots | rain 1hr in | rain 24hr in | rain mn in | humidity % | barometer mb |
| 20260504021341 | 50 | 263 | 0.0 | 0.0 | 0.00 | 0.00 | 0.00 | 55 | 1014.1 |
| 20260504020325 | 51 | 263 | 0.0 | 0.0 | 0.00 | 0.00 | 0.00 | 52 | 1014.1 |
| 20260504015343 | 52 | 263 | 0.0 | 0.0 | 0.00 | 0.00 | 0.00 | 52 | 1014.0 |
| 20260504014407 | 53 | 263 | 0.0 | 0.0 | 0.00 | 0.00 | 0.00 | 49 | 1013.9 |
| 20260504013429 | 53 | 263 | 0.0 | 0.0 | 0.00 | 0.00 | 0.00 | 48 | 1013.9 |
| 20260504012403 | 54 | 263 | 0.0 | 0.0 | 0.00 | 0.00 | 0.00 | 46 | 1013.8 |
| 20260504011340 | 55 | 263 | 0.0 | 0.0 | 0.00 | 0.00 | 0.00 | 45 | 1013.8 |
| 20260504010347 | 56 | 263 | 0.0 | 0.0 | 0.00 | 0.00 | 0.00 | 43 | 1013.8 |
| 20260504005403 | 56 | 263 | 0.0 | 0.0 | 0.00 | 0.00 | 0.00 | 42 | 1013.8 |
| 20260504004350 | 57 | 263 | 0.0 | 0.0 | 0.00 | 0.00 | 0.00 | 41 | 1013.6 |
| 20260504002238 | 59 | 263 | 0.0 | 0.9 | 0.00 | 0.00 | 0.00 | 34 | 1013.5 |
| 20260504001237 | 60 | 263 | 0.0 | 0.9 | 0.00 | 0.00 | 0.00 | 32 | 1013.5 |
| 20260504000211 | 61 | 263 | 0.0 | 0.9 | 0.00 | 0.00 | 0.00 | 32 | 1013.3 |
| 20260503235222 | 61 | 263 | 0.0 | 5.2 | 0.00 | 0.00 | 0.00 | 31 | 1013.2 |
| 20260503233034 | 62 | 242 | 0.9 | 5.2 | 0.00 | 0.00 | 0.00 | 30 | 1013.2 |
| 20260503232045 | 62 | 296 | 1.7 | 5.2 | 0.00 | 0.00 | 0.00 | 29 | 1013.0 |
| 20260503231023 | 63 | 322 | 0.0 | 5.2 | 0.00 | 0.00 | 0.00 | 31 | 1012.8 |
| 20260503230015 | 63 | 286 | 0.9 | 7.0 | 0.00 | 0.00 | 0.00 | 29 | 1012.8 |
| 20260503225008 | 63 | 294 | 1.7 | 7.0 | 0.00 | 0.00 | 0.00 | 28 | 1012.9 |
| 20260503222811 | 64 | 332 | 1.7 | 6.1 | 0.00 | 0.00 | 0.00 | 28 | 1013.0 |
| 20260503221746 | 64 | 322 | 2.6 | 9.6 | 0.00 | 0.00 | 0.00 | 27 | 1012.9 |
| 20260503220747 | 64 | 261 | 0.9 | 7.0 | 0.00 | 0.00 | 0.00 | 27 | 1013.1 |
| 20260503215722 | 64 | 288 | 2.6 | 9.6 | 0.00 | 0.00 | 0.00 | 27 | 1013.1 |
| 20260503214728 | 65 | 300 | 1.7 | 9.6 | 0.00 | 0.00 | 0.00 | 28 | 1013.1 |
| 20260503213730 | 65 | 302 | 1.7 | 7.8 | 0.00 | 0.00 | 0.00 | 27 | 1013.1 |
| 20260503212740 | 65 | 278 | 1.7 | 5.2 | 0.00 | 0.00 | 0.00 | 28 | 1013.2 |
| 20260503211711 | 65 | 317 | 0.9 | 10.4 | 0.00 | 0.00 | 0.00 | 28 | 1013.2 |
| 20260503210650 | 65 | 317 | 1.7 | 10.4 | 0.00 | 0.00 | 0.00 | 26 | 1013.2 |
| 20260503205641 | 66 | 290 | 0.9 | 7.8 | 0.00 | 0.00 | 0.00 | 27 | 1013.2 |
| 20260503203453 | 66 | 246 | 2.6 | 7.0 | 0.00 | 0.00 | 0.00 | 28 | 1013.3 |
| 20260503202438 | 65 | 224 | 2.6 | 11.3 | 0.00 | 0.00 | 0.00 | 27 | 1013.5 |
| 20260503201432 | 66 | 313 | 2.6 | 11.3 | 0.00 | 0.00 | 0.00 | 28 | 1013.6 |
| 20260503200429 | 65 | 306 | 2.6 | 11.3 | 0.00 | 0.00 | 0.00 | 28 | 1013.8 |
| 20260503195448 | 65 | 302 | 2.6 | 11.3 | 0.00 | 0.00 | 0.00 | 28 | 1013.8 |
| 20260503194513 | 65 | 287 | 2.6 | 7.8 | 0.00 | 0.00 | 0.00 | 28 | 1014.0 |
| 20260503193528 | 64 | 266 | 2.6 | 10.4 | 0.00 | 0.00 | 0.00 | 29 | 1014.0 |
| 20260503192542 | 64 | 317 | 2.6 | 10.4 | 0.00 | 0.00 | 0.00 | 29 | 1014.2 |
| 20260503190345 | 66 | 323 | 3.5 | 9.6 | 0.00 | 0.00 | 0.00 | 27 | 1014.6 |
| 20260503185327 | 66 | 304 | 1.7 | 9.6 | 0.00 | 0.00 | 0.00 | 30 | 1014.6 |
| 20260503184343 | 65 | 26 | 3.5 | 9.6 | 0.00 | 0.00 | 0.00 | 30 | 1014.8 |
| 20260503183402 | 64 | 291 | 3.5 | 8.7 | 0.00 | 0.00 | 0.00 | 30 | 1015.0 |
| 20260503181158 | 64 | 306 | 1.7 | 7.0 | 0.00 | 0.00 | 0.00 | 31 | 1014.9 |
| 20260503173934 | 64 | 260 | 3.5 | 8.7 | 0.00 | 0.00 | 0.00 | 28 | 1015.2 |
| 20260503171746 | 64 | 309 | 1.7 | 7.0 | 0.00 | 0.00 | 0.00 | 31 | 1015.5 |
| 20260503150409 | 58 | 262 | 2.6 | 7.8 | 0.00 | 0.00 | 0.00 | 35 | 1016.1 |
| 20260503131052 | 52 | 310 | 2.6 | 7.0 | 0.00 | 0.00 | 0.00 | 45 | 1016.5 |
| 20260503110817 | 43 | 306 | 0.9 | 3.5 | 0.00 | 0.00 | 0.00 | 68 | 1015.6 |
| 20260503090504 | 43 | 302 | 0.9 | 3.5 | 0.00 | 0.00 | 0.00 | 68 | 1013.9 |
| 20260503080252 | 44 | 304 | 0.0 | 2.6 | 0.00 | 0.00 | 0.00 | 66 | 1013.7 |
| 20260503072327 | 44 | 303 | 0.9 | 3.5 | 0.00 | 0.00 | 0.00 | 66 | 1013.3 |
| 20260503070110 | 44 | 296 | 0.0 | 2.6 | 0.00 | 0.00 | 0.00 | 65 | 1013.1 |
| 20260503054803 | 46 | 275 | 0.0 | 0.0 | 0.00 | 0.00 | 0.00 | 63 | 1012.8 |
| 20260503053741 | 46 | 274 | 0.0 | 1.7 | 0.00 | 0.00 | 0.00 | 62 | 1012.8 |
| 20260503052743 | 47 | 339 | 0.0 | 0.9 | 0.00 | 0.00 | 0.00 | 62 | 1012.8 |
| 20260503051714 | 47 | 339 | 0.0 | 0.0 | 0.00 | 0.00 | 0.00 | 62 | 1012.9 |
| 20260503050704 | 48 | 339 | 0.0 | 0.9 | 0.00 | 0.00 | 0.00 | 60 | 1013.0 |
| 20260503044555 | 49 | 339 | 0.0 | 0.0 | 0.00 | 0.00 | 0.00 | 58 | 1013.1 |
| 20260503043616 | 49 | 339 | 0.0 | 0.0 | 0.00 | 0.00 | 0.00 | 57 | 1013.1 |
| 20260503042543 | 49 | 339 | 0.0 | 0.0 | 0.00 | 0.00 | 0.00 | 56 | 1013.2 |
| 20260503041559 | 50 | 339 | 0.0 | 0.0 | 0.00 | 0.00 | 0.00 | 55 | 1013.1 |
| 20260503035503 | 51 | 345 | 0.0 | 4.3 | 0.00 | 0.00 | 0.00 | 54 | 1013.1 |
| 20260503034507 | 51 | 5 | 0.0 | 4.3 | 0.00 | 0.00 | 0.00 | 54 | 1013.0 |
| 20260503033527 | 52 | 355 | 0.9 | 4.3 | 0.00 | 0.00 | 0.00 | 52 | 1012.9 |
| 20260503032501 | 52 | 338 | 0.0 | 2.6 | 0.00 | 0.00 | 0.00 | 52 | 1012.8 |
| 20260503031509 | 52 | 332 | 0.0 | 2.6 | 0.00 | 0.00 | 0.00 | 52 | 1012.8 |
| 20260503030519 | 53 | 332 | 0.0 | 0.9 | 0.00 | 0.00 | 0.00 | 51 | 1012.8 |
| 20260503025511 | 53 | 332 | 0.0 | 2.6 | 0.00 | 0.00 | 0.00 | 50 | 1012.8 |
| 20260503024516 | 53 | 13 | 0.0 | 3.5 | 0.00 | 0.00 | 0.00 | 50 | 1012.8 |
| 20260503023500 | 53 | 334 | 0.0 | 3.5 | 0.00 | 0.00 | 0.00 | 50 | 1012.8 |